Artesia, NM

7:17 PM MST on January 18, 2018 (GMT -0700)
Artesia Municipal

Weather History for KATS - February, 2014

Change the Weather History Date:

Friday, February 7, 2014

  Actual Average Record
Temperature  
Mean Temperature 37 °F -  
Max Temperature 51 °F 55 °F 81 °F (1950)
Min Temperature 23 °F 22 °F 2 °F (1982)
Degree Days  
Heating Degree Days 28    
Moisture  
Dew Point 21 °F    
Average Humidity 60    
Maximum Humidity 80    
Minimum Humidity 35    
Precipitation  
Precipitation 0.00 in - - ()
Sea Level Pressure  
Sea Level Pressure 30.04 in    
Wind  
Wind Speed 11 mph (SSE)    
Max Wind Speed 18 mph    
Max Gust Speed 24 mph    
Visibility 10 miles    
Events      
Averages and records for this station are not official NWS values.
T = Trace of Precipitation, MM = Missing Value Source: NWS Daily Summary

Daily Weather History Graph

Daily Weather History Graph

Search for Another Location

Airport or City:

Trip Planner

Search our weather history database for the weather conditions in past years. The results will help you decide how hot, cold, wet, or windy it might be!

Date:

Astronomy

Feb. 07, 2014 Rise Set
Actual Time 6:48 AM MST 5:36 PM MST
Civil Twilight 6:22 AM MST 6:01 PM MST
Nautical Twilight 5:53 AM MST 6:30 PM MST
Astronomical Twilight 5:24 AM MST 6:59 PM MST
Moon 11:52 AM MST (2/7) 1:03 AM MST (2/7)
Length of Visible Light 11h 39m
Length of Day
10h 47m
First Quarter, 60% of the Moon is Illuminated
Feb 7
First Quarter
Feb 14
Full
Feb 22
Last Quarter
Mar 1
New
Mar 8
First Quarter

Hourly Weather History & Observations

Time (MST) Temp. Windchill Dew Point Humidity Pressure Visibility Wind Dir Wind Speed Gust Speed Precip Events Conditions
12:15 AM 23.0 °F 10.1 °F 17.6 °F 80% 30.08 in 10.0 mi SSE 15.0 mph - N/A   Overcast
12:35 AM 23.0 °F 9.2 °F 17.6 °F 80% 30.07 in 10.0 mi SSE 17.3 mph - N/A   Mostly Cloudy
12:55 AM 23.0 °F 10.6 °F 17.6 °F 80% 30.05 in 10.0 mi SSE 13.8 mph - N/A   Partly Cloudy
1:15 AM 23.0 °F 9.6 °F 17.6 °F 80% 30.06 in 10.0 mi SSE 16.1 mph - N/A   Mostly Cloudy
1:35 AM 23.0 °F 11.1 °F 15.8 °F 74% 30.06 in 10.0 mi SSE 12.7 mph 23.0 mph N/A   Overcast
1:55 AM 23.0 °F 9.2 °F 15.8 °F 74% 30.05 in 10.0 mi SSE 17.3 mph 23.0 mph N/A   Mostly Cloudy
2:15 AM 23.0 °F 9.2 °F 15.8 °F 74% 30.06 in 10.0 mi South 17.3 mph 24.2 mph N/A   Partly Cloudy
2:35 AM 23.0 °F 8.7 °F 14.0 °F 68% 30.06 in 10.0 mi SSE 18.4 mph 21.9 mph N/A   Clear
2:55 AM 23.0 °F 10.6 °F 14.0 °F 68% 30.06 in 10.0 mi SSE 13.8 mph - N/A   Partly Cloudy
3:15 AM 23.0 °F 10.1 °F 14.0 °F 68% 30.05 in 10.0 mi SSE 15.0 mph - N/A   Clear
3:35 AM 23.0 °F 11.1 °F 14.0 °F 68% 30.05 in 10.0 mi SSE 12.7 mph - N/A   Partly Cloudy
3:55 AM 23.0 °F 11.7 °F 15.8 °F 74% 30.04 in 10.0 mi SSE 11.5 mph - N/A   Scattered Clouds
4:15 AM 23.0 °F 12.4 °F 15.8 °F 74% 30.04 in 10.0 mi SSE 10.4 mph - N/A   Clear
4:35 AM 23.0 °F 13.9 °F 15.8 °F 74% 30.04 in 10.0 mi SE 8.1 mph - N/A   Clear
4:55 AM 23.0 °F 11.1 °F 15.8 °F 74% 30.05 in 10.0 mi SSE 12.7 mph - N/A   Clear
5:15 AM 23.0 °F 11.7 °F 15.8 °F 74% 30.05 in 10.0 mi SSE 11.5 mph - N/A   Clear
5:35 AM 23.0 °F 13.1 °F 15.8 °F 74% 30.05 in 10.0 mi SSE 9.2 mph - N/A   Scattered Clouds
5:55 AM 23.0 °F 13.9 °F 17.6 °F 80% 30.05 in 10.0 mi SSE 8.1 mph - N/A   Partly Cloudy
6:15 AM 23.0 °F 14.7 °F 17.6 °F 80% 30.06 in 10.0 mi SE 6.9 mph - N/A   Mostly Cloudy
6:35 AM 23.0 °F 12.4 °F 17.6 °F 80% 30.06 in 10.0 mi SSE 10.4 mph - N/A   Scattered Clouds
6:55 AM 23.0 °F 13.1 °F 17.6 °F 80% 30.07 in 10.0 mi SE 9.2 mph - N/A   Scattered Clouds
7:15 AM 23.0 °F 14.7 °F 17.6 °F 80% 30.07 in 10.0 mi SE 6.9 mph - N/A   Partly Cloudy
7:35 AM 23.0 °F 15.8 °F 17.6 °F 80% 30.08 in 10.0 mi SE 5.8 mph - N/A   Scattered Clouds
7:55 AM 23.0 °F 15.8 °F 17.6 °F 80% 30.09 in 10.0 mi SSE 5.8 mph - N/A   Partly Cloudy
8:15 AM 23.0 °F 14.7 °F 17.6 °F 80% 30.09 in 10.0 mi SE 6.9 mph - N/A   Clear
8:35 AM 23.0 °F 15.8 °F 17.6 °F 80% 30.10 in 10.0 mi SE 5.8 mph - N/A   Clear
8:55 AM 24.8 °F 16.9 °F 17.6 °F 74% 30.10 in 10.0 mi SE 6.9 mph - N/A   Clear
9:15 AM 26.6 °F 17.5 °F 17.6 °F 69% 30.09 in 10.0 mi ESE 9.2 mph - N/A   Clear
9:35 AM 26.6 °F 19.1 °F 17.6 °F 69% 30.10 in 10.0 mi SSE 6.9 mph - N/A   Clear
9:55 AM 26.6 °F 19.1 °F 17.6 °F 69% 30.11 in 10.0 mi SSE 6.9 mph - N/A   Clear
10:15 AM 28.4 °F 19.7 °F 17.6 °F 64% 30.10 in 10.0 mi SE 9.2 mph - N/A   Clear
10:35 AM 28.4 °F 20.4 °F 17.6 °F 64% 30.10 in 10.0 mi SE 8.1 mph - N/A   Clear
10:55 AM 32.0 °F 24.2 °F 19.4 °F 60% 30.09 in 10.0 mi SSE 9.2 mph - N/A   Clear
11:15 AM 32.0 °F 24.8 °F 19.4 °F 60% 30.09 in 10.0 mi SSE 8.1 mph - N/A   Clear
11:35 AM 33.8 °F 27.0 °F 19.4 °F 56% 30.07 in 10.0 mi SSE 8.1 mph - N/A   Clear
11:55 AM 35.6 °F 28.6 °F 19.4 °F 52% 30.07 in 10.0 mi SSE 9.2 mph - N/A   Clear
12:15 PM 37.4 °F 31.4 °F 21.2 °F 52% 30.05 in 10.0 mi SSE 8.1 mph - N/A   Clear
12:35 PM 37.4 °F 30.3 °F 21.2 °F 52% 30.04 in 10.0 mi SE 10.4 mph - N/A   Clear
12:55 PM 39.2 °F 33.6 °F 21.2 °F 49% 30.03 in 10.0 mi South 8.1 mph - N/A   Clear
1:15 PM 41.0 °F 35.2 °F 23.0 °F 49% 30.01 in 10.0 mi South 9.2 mph - N/A   Clear
1:35 PM 42.8 °F 37.0 °F 23.0 °F 46% 30.00 in 10.0 mi SSE 10.4 mph - N/A   Clear
1:55 PM 44.6 °F 39.2 °F 23.0 °F 43% 29.99 in 10.0 mi SE 10.4 mph - N/A   Clear
2:15 PM 46.4 °F 40.7 °F 23.0 °F 40% 29.97 in 10.0 mi SSE 12.7 mph - N/A   Clear
2:35 PM 48.2 °F - 24.8 °F 40% 29.97 in 10.0 mi SE 11.5 mph - N/A   Clear
2:55 PM 50.0 °F - 24.8 °F 37% 29.97 in 10.0 mi SSE 9.2 mph - N/A   Clear
3:15 PM 50.0 °F - 24.8 °F 37% 29.97 in 10.0 mi SE 8.1 mph - N/A   Clear
3:35 PM 51.8 °F - 24.8 °F 35% 29.97 in 10.0 mi SE 10.4 mph - N/A   Clear
3:55 PM 51.8 °F - 24.8 °F 35% 29.97 in 10.0 mi SE 8.1 mph - N/A   Clear
4:15 PM 51.8 °F - 24.8 °F 35% 29.98 in 10.0 mi SSE 8.1 mph - N/A   Clear
4:35 PM 51.8 °F - 24.8 °F 35% 29.98 in 10.0 mi SE 5.8 mph - N/A   Clear
4:55 PM 51.8 °F - 24.8 °F 35% 29.99 in 10.0 mi SSE 5.8 mph - N/A   Clear
5:15 PM 50.0 °F - 24.8 °F 37% 30.00 in 10.0 mi ESE 3.5 mph - N/A   Clear
5:35 PM 48.2 °F - 24.8 °F 40% 30.00 in 10.0 mi Calm Calm - N/A   Clear
5:55 PM 44.6 °F 42.2 °F 24.8 °F 46% 30.00 in 10.0 mi South 4.6 mph - N/A   Clear
6:15 PM 41.0 °F 39.0 °F 24.8 °F 53% 30.01 in 10.0 mi SSE 3.5 mph - N/A   Clear
6:35 PM 41.0 °F - 24.8 °F 53% 30.02 in 10.0 mi Calm Calm - N/A   Clear
6:55 PM 42.8 °F - 24.8 °F 49% 30.02 in 10.0 mi Calm Calm - N/A   Clear
7:15 PM 37.4 °F 32.8 °F 24.8 °F 60% 30.03 in 10.0 mi South 5.8 mph - N/A   Clear
7:35 PM 39.2 °F 34.2 °F 24.8 °F 56% 30.03 in 10.0 mi SSW 6.9 mph - N/A   Clear
7:55 PM 37.4 °F 31.4 °F 24.8 °F 60% 30.03 in 10.0 mi SSW 8.1 mph - N/A   Clear
8:15 PM 41.0 °F 34.7 °F 26.6 °F 57% 30.03 in 10.0 mi SW 10.4 mph - N/A   Clear
8:35 PM 41.0 °F 33.5 °F 26.6 °F 57% 30.03 in 10.0 mi SW 13.8 mph - N/A   Clear
8:55 PM 42.8 °F 36.2 °F 26.6 °F 53% 30.03 in 10.0 mi WSW 12.7 mph - N/A   Clear
9:15 PM 41.0 °F 33.5 °F 26.6 °F 57% 30.04 in 10.0 mi WSW 13.8 mph - N/A   Clear
9:35 PM 44.6 °F 38.1 °F 26.6 °F 49% 30.04 in 10.0 mi WSW 13.8 mph - N/A   Clear
9:55 PM 44.6 °F 37.8 °F 26.6 °F 49% 30.04 in 10.0 mi SW 15.0 mph - N/A   Clear
10:15 PM 42.8 °F 36.2 °F 26.6 °F 53% 30.03 in 10.0 mi SW 12.7 mph - N/A   Clear
10:35 PM 44.6 °F 37.8 °F 26.6 °F 49% 30.03 in 10.0 mi SW 15.0 mph - N/A   Clear
10:55 PM 42.8 °F 36.2 °F 26.6 °F 53% 30.03 in 10.0 mi WSW 12.7 mph - N/A   Clear
11:15 PM 42.8 °F 35.4 °F 26.6 °F 53% 30.03 in 10.0 mi WSW 15.0 mph - N/A   Clear
11:35 PM 41.0 °F 33.9 °F 26.6 °F 57% 30.03 in 10.0 mi WSW 12.7 mph - N/A   Clear
11:55 PM 39.2 °F 31.6 °F 26.6 °F 61% 30.03 in 10.0 mi WSW 12.7 mph - N/A   Clear